sat.trackr.live / text

‹ back to catalog

STARLINK-30612

NORAD 58106 · 2023-161K

PAYLOAD ACTIVE UNKNOWN

§ Identity

Operator
Country
US
Launch date
2023-10-21
Launch site
AFWTR
Launch vehicle
Mass (kg)
RCS (m²)

Purposes: comms

External: N2YO · Heavens-Above · Gunter

§ Orbital elements

Epoch: 2026-09-20T11:42:45.513792Z

Period
93.85 min
Inclination
53.1615°
Eccentricity
0.0001135
Mean motion
15.34388836 rev/d
Perigee alt
462.0 km
Apogee alt
463.5 km
Semi-major
6,840.9 km
B*
1.4928e-5
RAAN
323.7009°
Arg perigee
89.6657°
Mean anomaly
270.4475°
Rev number
16,447

§ Raw data

STARLINK-306121 58106U 23161K   26263.48802678  .00000128  00000+0  14928-4 0  99932 58106  53.1615 323.7009 0001135  89.6657 270.4475 15.34388836164478

JSON: /api/v1/satellites/58106 · /tle

For live sub-satellite position, see the globe view (requires WebGL).

§ Visibility from observer

Set your observer location to see the next 7 days of passes ≥ 10°. The values pass through the URL so the page stays shareable.

No JS? Fill the form by hand. The geolocation button needs JavaScript.